Thunder radar more information blitzortung!


Radar de pluja more information rain snow radar


Visita la nostra xarxa de llocs de meteo:

Template documentation
and downloads

And another site



No particular awareness of the weather is required.    There are no Weather-warnings

Pagina Historial Weather Underground text

Diari Resum Desembre 2, 2017 Unitats:  Mètric    Imperial   Tant
« Previous Dia
SegĂźent Dia »
Diari Setmana Mensual Anual Personalitzada
  Maxima: Minima: Media:
Temperatura: 9.6 °C -0.5 °C 4.3 °C
Punt de rosada: -6.1 °C -14.8 °C -10.2 °C
Humitat: 51 % 19 % 36 %
Wind Speed: 20.4 km/h 0.0 km/h 6.5 km/h
RĂ fegues de vent: 20.4 km/h - -
Vent:- - SW
Pression baro: 1015.8 hPa 1009.0 hPa -
Precipitacions: 0.0 mm    
Historical Graphs
 
 
Dades de taula per Desembre 2, 2017
Temps Temperatura Punt de rosada Pression baro Vent Wind Speed RĂ fegues de vent Humitat Rainfall Rate (Hourly)
00:04 2.3 °C -9.0 °C 1013.8 hPa WSW 7.4 km/h 7.4 km/h 43 % 0.0 mm
00:15 2.1 °C -9.2 °C 1013.8 hPa WSW 8.0 km/h 8.0 km/h 43 % 0.0 mm
00:20 2.2 °C -9.4 °C 1013.8 hPa WSW 3.2 km/h 3.2 km/h 42 % 0.0 mm
00:25 2.0 °C -9.6 °C 1013.8 hPa SW 3.2 km/h 4.8 km/h 42 % 0.0 mm
00:30 2.0 °C -9.6 °C 1013.8 hPa WSW 3.2 km/h 4.8 km/h 42 % 0.0 mm
00:35 2.0 °C -9.9 °C 1013.8 hPa SW 3.2 km/h 4.8 km/h 41 % 0.0 mm
00:40 1.8 °C -10.1 °C 1013.8 hPa WSW 3.2 km/h 3.2 km/h 41 % 0.0 mm
00:45 1.7 °C -10.2 °C 1013.8 hPa West 1.6 km/h 3.2 km/h 41 % 0.0 mm
00:50 1.7 °C -9.9 °C 1013.8 hPa WSW 4.8 km/h 4.8 km/h 42 % 0.0 mm
00:55 1.8 °C -10.1 °C 1013.8 hPa WSW 3.2 km/h 4.8 km/h 41 % 0.0 mm
01:00 1.8 °C -10.1 °C 1013.8 hPa WSW 1.6 km/h 3.2 km/h 41 % 0.0 mm
01:05 1.6 °C -9.9 °C 1013.8 hPa West 4.8 km/h 4.8 km/h 42 % 0.0 mm
01:10 1.7 °C -9.9 °C 1013.8 hPa WSW 3.2 km/h 6.4 km/h 42 % 0.0 mm
01:15 1.7 °C -9.9 °C 1012.8 hPa WSW 1.6 km/h 6.4 km/h 42 % 0.0 mm
01:25 1.6 °C -9.9 °C 1012.8 hPa West 3.2 km/h 3.2 km/h 42 % 0.0 mm
01:30 1.5 °C -10.1 °C 1012.8 hPa West 1.6 km/h   42 % 0.0 mm
01:35 1.4 °C -10.1 °C 1012.8 hPa WSW 3.2 km/h 3.2 km/h 42 % 0.0 mm
01:40 1.4 °C -10.1 °C 1012.8 hPa SW 3.2 km/h 3.2 km/h 42 % 0.0 mm
01:45 1.3 °C -10.2 °C 1012.8 hPa Calm   3.2 km/h 42 % 0.0 mm
01:50 1.2 °C -10.3 °C 1012.8 hPa WSW 3.2 km/h 6.4 km/h 42 % 0.0 mm
01:55 1.3 °C -10.2 °C 1012.8 hPa West 3.2 km/h 6.4 km/h 42 % 0.0 mm
02:00 1.4 °C -9.8 °C 1012.8 hPa West 4.8 km/h 4.8 km/h 43 % 0.0 mm
02:05 1.3 °C -9.9 °C 1012.8 hPa West 3.2 km/h 4.8 km/h 43 % 0.0 mm
02:10 1.3 °C -9.9 °C 1012.8 hPa West 1.6 km/h 3.2 km/h 43 % 0.0 mm
02:15 1.3 °C -9.9 °C 1012.8 hPa WSW 4.8 km/h 4.8 km/h 43 % 0.0 mm
02:25 1.4 °C -9.8 °C 1012.8 hPa West 3.2 km/h 4.8 km/h 43 % 0.0 mm
02:30 1.3 °C -9.9 °C 1012.8 hPa WSW 4.8 km/h 4.8 km/h 43 % 0.0 mm
02:35 1.2 °C -10.0 °C 1012.8 hPa WSW 4.8 km/h 8.0 km/h 43 % 0.0 mm
02:40 1.4 °C -9.8 °C 1012.8 hPa WSW 4.8 km/h 8.0 km/h 43 % 0.0 mm
02:45 1.4 °C -9.8 °C 1012.8 hPa West 8.0 km/h 8.0 km/h 43 % 0.0 mm
02:55 1.4 °C -9.8 °C 1012.8 hPa West 8.0 km/h 8.0 km/h 43 % 0.0 mm
03:00 1.4 °C -9.8 °C 1012.8 hPa WSW 9.7 km/h 9.7 km/h 43 % 0.0 mm
03:05 1.4 °C -9.8 °C 1012.8 hPa WSW 4.8 km/h 6.4 km/h 43 % 0.0 mm
03:10 1.4 °C -9.8 °C 1012.8 hPa WSW 4.8 km/h 6.4 km/h 43 % 0.0 mm
03:15 1.3 °C -9.9 °C 1012.8 hPa WSW 4.8 km/h 4.8 km/h 43 % 0.0 mm
03:25 1.3 °C -9.9 °C 1012.8 hPa SW 3.2 km/h 6.4 km/h 43 % 0.0 mm
03:30 1.3 °C -9.9 °C 1011.7 hPa West 4.8 km/h 6.4 km/h 43 % 0.0 mm
03:35 1.2 °C -10.0 °C 1011.7 hPa West 3.2 km/h 4.8 km/h 43 % 0.0 mm
03:45 1.2 °C -10.0 °C 1011.7 hPa WSW 4.8 km/h 6.4 km/h 43 % 0.0 mm
03:50 1.2 °C -9.7 °C 1011.7 hPa WSW 8.0 km/h 8.0 km/h 44 % 0.0 mm
03:55 1.1 °C -9.8 °C 1011.7 hPa SW 4.8 km/h 6.4 km/h 44 % 0.0 mm
04:00 1.2 °C -9.7 °C 1011.7 hPa WSW 9.7 km/h 9.7 km/h 44 % 0.0 mm
04:05 1.4 °C -9.6 °C 1011.7 hPa WSW 12.9 km/h 12.9 km/h 44 % 0.0 mm
04:10 1.4 °C -9.6 °C 1011.7 hPa WSW 9.7 km/h 9.7 km/h 44 % 0.0 mm
04:15 1.4 °C -9.3 °C 1011.7 hPa WSW 11.3 km/h 11.3 km/h 45 % 0.0 mm
04:20 1.4 °C -9.3 °C 1011.7 hPa WSW 8.0 km/h 9.7 km/h 45 % 0.0 mm
04:25 1.4 °C -9.3 °C 1011.7 hPa West 4.8 km/h 6.4 km/h 45 % 0.0 mm
04:30 1.2 °C -9.4 °C 1011.7 hPa West 4.8 km/h 6.4 km/h 45 % 0.0 mm
04:35 1.1 °C -9.6 °C 1011.7 hPa WSW 4.8 km/h 8.0 km/h 45 % 0.0 mm
04:40 1.0 °C -9.3 °C 1011.7 hPa West 4.8 km/h 8.0 km/h 46 % 0.0 mm
04:45 1.1 °C -9.3 °C 1011.7 hPa West 8.0 km/h 8.0 km/h 46 % 0.0 mm
04:50 1.2 °C -9.2 °C 1011.7 hPa West 4.8 km/h 8.0 km/h 46 % 0.0 mm
04:55 1.2 °C -9.2 °C 1011.7 hPa WNW 3.2 km/h 4.8 km/h 46 % 0.0 mm
05:00 1.1 °C -9.0 °C 1011.7 hPa West 1.6 km/h 3.2 km/h 47 % 0.0 mm
05:05 1.0 °C -9.1 °C 1011.7 hPa WSW 3.2 km/h 3.2 km/h 47 % 0.0 mm
05:10 1.0 °C -9.1 °C 1011.7 hPa West 1.6 km/h 3.2 km/h 47 % 0.0 mm
05:15 0.7 °C -9.3 °C 1011.7 hPa WNW 1.6 km/h 3.2 km/h 47 % 0.0 mm
05:20 0.6 °C -9.4 °C 1011.7 hPa West 1.6 km/h 3.2 km/h 47 % 0.0 mm
05:25 0.5 °C -9.6 °C 1011.7 hPa NW 3.2 km/h 3.2 km/h 47 % 0.0 mm
05:30 0.5 °C -9.6 °C 1012.8 hPa WNW 1.6 km/h 3.2 km/h 47 % 0.0 mm
05:35 0.5 °C -9.6 °C 1012.8 hPa Calm   1.6 km/h 47 % 0.0 mm
05:40 0.4 °C -9.3 °C 1012.8 hPa NNW 1.6 km/h 3.2 km/h 48 % 0.0 mm
05:45 0.4 °C -9.3 °C 1012.8 hPa NE 3.2 km/h 3.2 km/h 48 % 0.0 mm
05:50 0.3 °C -9.4 °C 1012.8 hPa NNE 1.6 km/h 1.6 km/h 48 % 0.0 mm
05:55 0.1 °C -9.9 °C 1012.8 hPa NW 1.6 km/h 3.2 km/h 47 % 0.0 mm
06:00 0.1 °C -9.9 °C 1013.8 hPa NNW 1.6 km/h 3.2 km/h 47 % 0.0 mm
06:05 0.0 °C -9.7 °C 1013.8 hPa WNW 1.6 km/h 1.6 km/h 48 % 0.0 mm
06:15 -0.1 °C -9.8 °C 1013.8 hPa NNE 1.6 km/h 4.8 km/h 48 % 0.0 mm
06:20 -0.2 °C -9.9 °C 1013.8 hPa NNE 3.2 km/h 6.4 km/h 48 % 0.0 mm
06:25 -0.3 °C -10.0 °C 1013.8 hPa Calm   6.4 km/h 48 % 0.0 mm
06:30 -0.5 °C -9.9 °C 1013.8 hPa ENE 1.6 km/h 4.8 km/h 49 % 0.0 mm
06:35 -0.5 °C -9.9 °C 1013.8 hPa NNE 3.2 km/h 3.2 km/h 49 % 0.0 mm
06:40 -0.5 °C -9.9 °C 1013.8 hPa NE 3.2 km/h 3.2 km/h 49 % 0.0 mm
06:45 -0.4 °C -9.6 °C 1013.8 hPa NNE 1.6 km/h 8.0 km/h 50 % 0.0 mm
06:50 -0.4 °C -9.6 °C 1013.8 hPa NNE 1.6 km/h 8.0 km/h 50 % 0.0 mm
06:55 -0.3 °C -9.5 °C 1013.8 hPa WNW 1.6 km/h 4.8 km/h 50 % 0.0 mm
07:00 -0.3 °C -9.5 °C 1012.8 hPa WSW 1.6 km/h 4.8 km/h 50 % 0.0 mm
07:05 -0.1 °C -9.3 °C 1012.8 hPa West 3.2 km/h   50 % 0.0 mm
07:10 -0.1 °C -9.3 °C 1012.8 hPa West 3.2 km/h 3.2 km/h 50 % 0.0 mm
07:19 -0.1 °C -9.3 °C 1013.8 hPa ENE 3.9 km/h 3.9 km/h 50 % 0.0 mm
07:20 -0.1 °C -9.3 °C 1013.8 hPa ENE 3.9 km/h 3.9 km/h 50 % 0.0 mm
07:25 -0.2 °C -9.1 °C 1013.8 hPa NE 3.7 km/h 3.9 km/h 51 % 0.0 mm
07:30 -0.4 °C -9.3 °C 1013.8 hPa East 2.6 km/h 2.6 km/h 51 % 0.0 mm
07:35 -0.4 °C -9.3 °C 1013.8 hPa Calm     51 % 0.0 mm
07:40 -0.4 °C -9.3 °C 1013.8 hPa WNW 1.9 km/h   51 % 0.0 mm
07:50 -0.1 °C -9.1 °C 1013.8 hPa West 3.7 km/h 3.7 km/h 51 % 0.0 mm
08:00 0.0 °C -8.9 °C 1013.8 hPa ENE 2.6 km/h 2.6 km/h 51 % 0.0 mm
08:15 0.1 °C -8.8 °C 1012.8 hPa NNW 1.9 km/h 1.9 km/h 51 % 0.0 mm
08:20 0.1 °C -8.8 °C 1012.8 hPa West 3.7 km/h   51 % 0.0 mm
08:25 0.3 °C -8.7 °C 1012.8 hPa WSW 3.9 km/h 3.9 km/h 51 % 0.0 mm
08:35 0.4 °C -8.6 °C 1012.8 hPa WSW 5.6 km/h 5.6 km/h 51 % 0.0 mm
08:40 0.5 °C -8.5 °C 1012.8 hPa WSW 5.6 km/h 5.6 km/h 51 % 0.0 mm
08:45 0.7 °C -8.3 °C 1012.8 hPa West 7.4 km/h 7.4 km/h 51 % 0.0 mm
08:50 1.0 °C -8.0 °C 1012.8 hPa SSW 2.6 km/h 2.6 km/h 51 % 0.0 mm
08:55 1.2 °C -7.8 °C 1012.8 hPa SW 3.7 km/h 3.7 km/h 51 % 0.0 mm
09:00 1.5 °C -7.6 °C 1013.8 hPa WSW 3.7 km/h 3.7 km/h 51 % 0.0 mm
09:05 1.5 °C -7.6 °C 1013.8 hPa WNW 7.6 km/h 7.6 km/h 51 % 0.0 mm
09:10 1.7 °C -7.4 °C 1013.8 hPa SW 9.3 km/h 9.3 km/h 51 % 0.0 mm
09:15 1.9 °C -7.2 °C 1013.8 hPa SSW 6.4 km/h 6.4 km/h 51 % 0.0 mm
09:25 2.5 °C -6.9 °C 1013.8 hPa WSW 13.0 km/h 13.0 km/h 50 % 0.0 mm
09:30 2.7 °C -6.7 °C 1013.8 hPa WSW 11.1 km/h 11.1 km/h 50 % 0.0 mm
09:40 3.1 °C -6.3 °C 1013.8 hPa WNW 8.7 km/h 8.7 km/h 50 % 0.0 mm
09:45 3.4 °C -6.3 °C 1013.8 hPa WSW 5.6 km/h 5.6 km/h 49 % 0.0 mm
09:55 3.7 °C -6.3 °C 1013.8 hPa WSW 18.5 km/h 18.5 km/h 48 % 0.0 mm
10:00 3.9 °C -6.4 °C 1013.8 hPa WSW 13.0 km/h 13.0 km/h 47 % 0.0 mm
10:25 4.8 °C -6.2 °C 1013.8 hPa SW 5.6 km/h 5.6 km/h 45 % 0.0 mm
10:30 4.9 °C -6.1 °C 1012.8 hPa WSW 11.4 km/h 11.4 km/h 45 % 0.0 mm
10:40 5.1 °C -6.5 °C 1012.8 hPa WSW 15.8 km/h 15.8 km/h 43 % 0.0 mm
10:45 5.3 °C -6.3 °C 1013.8 hPa SW 14.0 km/h 14.0 km/h 43 % 0.0 mm
10:50 5.6 °C -6.3 °C 1013.8 hPa West 9.3 km/h 9.3 km/h 42 % 0.0 mm
11:00 5.9 °C -6.4 °C 1012.8 hPa West 14.8 km/h 14.8 km/h 41 % 0.0 mm
11:05 6.1 °C -6.5 °C 1012.8 hPa SW 13.0 km/h 13.0 km/h 40 % 0.0 mm
11:10 6.4 °C -6.2 °C 1012.8 hPa WSW 9.5 km/h 9.5 km/h 40 % 0.0 mm
11:15 6.3 °C -7.0 °C 1013.8 hPa West 16.7 km/h 16.7 km/h 38 % 0.0 mm
11:20 6.4 °C -6.9 °C 1013.8 hPa West 16.7 km/h 16.7 km/h 38 % 0.0 mm
11:25 6.8 °C -6.6 °C 1013.8 hPa South 9.0 km/h 9.0 km/h 38 % 0.0 mm
11:30 6.6 °C -6.7 °C 1012.8 hPa West 13.0 km/h 13.0 km/h 38 % 0.0 mm
11:35 6.4 °C -7.3 °C 1012.8 hPa WSW 12.2 km/h 12.2 km/h 37 % 0.0 mm
11:40 6.3 °C -7.7 °C 1012.8 hPa West 15.8 km/h 15.8 km/h 36 % 0.0 mm
11:45 6.4 °C -7.6 °C 1012.8 hPa SW 11.1 km/h 11.1 km/h 36 % 0.0 mm
11:50 6.5 °C -7.5 °C 1012.8 hPa WSW 9.3 km/h 9.3 km/h 36 % 0.0 mm
11:55 6.6 °C -7.8 °C 1012.8 hPa SW 11.1 km/h 11.1 km/h 35 % 0.0 mm
12:00 6.8 °C -7.6 °C 1012.8 hPa WNW 13.0 km/h 13.0 km/h 35 % 0.0 mm
12:05 6.9 °C -7.6 °C 1012.8 hPa WSW 14.8 km/h 14.8 km/h 35 % 0.0 mm
12:08 6.9 °C -7.6 °C 1012.8 hPa WSW 16.7 km/h 16.7 km/h 35 % 0.0 mm
12:13 7.1 °C -7.7 °C 1012.8 hPa NNW 16.9 km/h 16.9 km/h 34 % 0.0 mm
12:18 7.2 °C -8.1 °C 1011.7 hPa SW 11.1 km/h 11.1 km/h 33 % 0.0 mm
12:23 7.3 °C -7.9 °C 1011.7 hPa WNW 9.3 km/h 9.3 km/h 33 % 0.0 mm
12:28 7.2 °C -8.1 °C 1011.7 hPa West 12.2 km/h 12.2 km/h 33 % 0.0 mm
12:33 7.2 °C -8.4 °C 1011.7 hPa West 14.8 km/h 14.8 km/h 32 % 0.0 mm
12:38 7.3 °C -8.3 °C 1011.7 hPa NW 9.3 km/h 9.3 km/h 32 % 0.0 mm
12:43 7.7 °C -8.0 °C 1011.7 hPa West 9.3 km/h 9.3 km/h 32 % 0.0 mm
12:58 8.2 °C -7.9 °C 1011.7 hPa WSW 13.0 km/h 13.0 km/h 31 % 0.0 mm
13:08 8.4 °C -7.8 °C 1011.7 hPa NNW 9.3 km/h 9.3 km/h 31 % 0.0 mm
13:13 8.7 °C -7.5 °C 1011.7 hPa WSW 20.4 km/h 20.4 km/h 31 % 0.0 mm
13:18 8.6 °C -8.1 °C 1010.7 hPa SW 18.5 km/h 18.5 km/h 30 % 0.0 mm
13:23 8.8 °C -7.8 °C 1010.7 hPa SSW 11.4 km/h 11.4 km/h 30 % 0.0 mm
13:33 9.0 °C -7.7 °C 1010.0 hPa SW 13.0 km/h 13.0 km/h 30 % 0.0 mm
13:38 9.4 °C -7.3 °C 1010.0 hPa West 18.5 km/h 18.5 km/h 30 % 0.0 mm
13:43 9.4 °C -7.8 °C 1010.0 hPa NW 7.4 km/h 7.4 km/h 29 % 0.0 mm
13:48 9.6 °C -7.2 °C 1010.0 hPa West 11.9 km/h 11.9 km/h 30 % 0.0 mm
13:53 9.5 °C -7.2 °C 1010.0 hPa West 9.3 km/h 9.3 km/h 30 % 0.0 mm
13:58 9.2 °C -8.4 °C 1010.0 hPa WNW 13.0 km/h 13.0 km/h 28 % 0.0 mm
14:13 9.0 °C -9.5 °C 1010.0 hPa WSW 16.7 km/h 16.7 km/h 26 % 0.0 mm
14:18 9.0 °C -9.5 °C 1010.7 hPa SW 11.1 km/h 11.1 km/h 26 % 0.0 mm
14:23 8.9 °C -10.1 °C 1010.7 hPa WSW 9.7 km/h 9.7 km/h 25 % 0.0 mm
14:29 8.9 °C -10.1 °C 1010.0 hPa WSW 15.6 km/h 15.6 km/h 25 % 0.0 mm
14:34 8.8 °C -11.2 °C 1010.0 hPa West 9.3 km/h 9.3 km/h 23 % 0.0 mm
14:39 8.9 °C -10.6 °C 1010.0 hPa WNW 9.3 km/h 9.3 km/h 24 % 0.0 mm
14:44 8.9 °C -10.6 °C 1010.0 hPa West 9.3 km/h 9.3 km/h 24 % 0.0 mm
14:49 8.9 °C -10.6 °C 1010.0 hPa West 11.1 km/h 11.1 km/h 24 % 0.0 mm
14:54 8.8 °C -10.7 °C 1010.0 hPa WNW 7.4 km/h 7.4 km/h 24 % 0.0 mm
14:59 8.7 °C -11.3 °C 1009.0 hPa West 11.1 km/h 11.1 km/h 23 % 0.0 mm
15:04 8.7 °C -11.3 °C 1009.0 hPa WSW 13.0 km/h 13.0 km/h 23 % 0.0 mm
15:09 8.6 °C -12.6 °C 1009.0 hPa WSW 18.5 km/h 18.5 km/h 21 % 0.0 mm
15:19 8.5 °C -12.6 °C 1010.0 hPa West 9.3 km/h 9.3 km/h 21 % 0.0 mm
15:24 8.4 °C -12.7 °C 1010.0 hPa WSW 19.0 km/h 19.0 km/h 21 % 0.0 mm
15:29 8.4 °C -13.3 °C 1010.0 hPa WNW 9.3 km/h 9.3 km/h 20 % 0.0 mm
15:39 8.4 °C -12.7 °C 1010.0 hPa WSW 13.0 km/h 13.0 km/h 21 % 0.0 mm
15:44 8.4 °C -12.7 °C 1010.0 hPa West 9.5 km/h 9.5 km/h 21 % 0.0 mm
15:49 8.4 °C -13.3 °C 1010.0 hPa West 14.8 km/h 14.8 km/h 20 % 0.0 mm
15:59 8.3 °C -13.4 °C 1009.0 hPa NNW 13.0 km/h 13.0 km/h 20 % 0.0 mm
16:04 8.2 °C -13.5 °C 1009.0 hPa SSW 9.3 km/h 9.3 km/h 20 % 0.0 mm
16:09 8.2 °C -13.5 °C 1009.0 hPa ESE 9.3 km/h 9.3 km/h 20 % 0.0 mm
16:14 8.1 °C -13.6 °C 1010.0 hPa SW 6.9 km/h 6.9 km/h 20 % 0.0 mm
16:29 8.0 °C -13.7 °C 1010.7 hPa SSW 9.3 km/h 9.3 km/h 20 % 0.0 mm
16:34 8.0 °C -13.7 °C 1010.7 hPa WSW 9.3 km/h 9.3 km/h 20 % 0.0 mm
16:39 7.9 °C -13.7 °C 1010.7 hPa West 11.1 km/h 11.1 km/h 20 % 0.0 mm
16:44 7.9 °C -13.7 °C 1010.7 hPa SSW 4.7 km/h 4.7 km/h 20 % 0.0 mm
16:54 7.8 °C -13.8 °C 1010.7 hPa WSW 7.4 km/h 7.4 km/h 20 % 0.0 mm
16:59 7.8 °C -13.8 °C 1010.7 hPa West 3.7 km/h 3.7 km/h 20 % 0.0 mm
17:04 7.8 °C -13.8 °C 1010.7 hPa WNW 3.7 km/h 3.7 km/h 20 % 0.0 mm
17:14 7.8 °C -13.8 °C 1011.7 hPa NNE 7.4 km/h 7.4 km/h 20 % 0.0 mm
17:19 7.7 °C -13.9 °C 1011.7 hPa WNW 5.6 km/h 5.6 km/h 20 % 0.0 mm
17:24 7.6 °C -14.0 °C 1011.7 hPa West 3.7 km/h 3.7 km/h 20 % 0.0 mm
17:29 7.5 °C -14.1 °C 1011.7 hPa NNW 4.2 km/h 4.2 km/h 20 % 0.0 mm
17:34 7.5 °C -14.1 °C 1011.7 hPa NW 7.4 km/h 7.4 km/h 20 % 0.0 mm
17:44 7.3 °C -14.8 °C 1011.7 hPa NE 4.2 km/h 4.2 km/h 19 % 0.0 mm
17:54 7.1 °C -14.4 °C 1011.7 hPa NNE 5.6 km/h 5.6 km/h 20 % 0.0 mm
18:00 7.1 °C -14.4 °C 1012.8 hPa NNE 3.7 km/h 3.7 km/h 20 % 0.0 mm
18:07 7.0 °C -14.5 °C 1012.8 hPa NNE 3.7 km/h 3.7 km/h 20 % 0.0 mm
18:17 6.9 °C -14.6 °C 1012.8 hPa NE 5.8 km/h 5.8 km/h 20 % 0.0 mm
18:22 7.0 °C -14.5 °C 1012.8 hPa ENE 3.7 km/h 3.7 km/h 20 % 0.0 mm
18:27 6.9 °C -14.6 °C 1012.8 hPa NE 6.9 km/h 6.9 km/h 20 % 0.0 mm
18:37 6.8 °C -14.7 °C 1012.8 hPa NNE 3.7 km/h 3.7 km/h 20 % 0.0 mm
18:42 6.6 °C -14.2 °C 1012.8 hPa NNE 4.7 km/h 4.7 km/h 21 % 0.0 mm
18:48 6.7 °C -13.6 °C 1013.8 hPa ENE 7.4 km/h 7.4 km/h 22 % 0.0 mm
18:53 6.7 °C -13.6 °C 1013.8 hPa NNE 7.4 km/h 7.4 km/h 22 % 0.0 mm
19:03 6.6 °C -13.1 °C 1013.8 hPa NNE 3.7 km/h 3.7 km/h 23 % 0.0 mm
19:08 6.5 °C -12.7 °C 1013.8 hPa ENE 1.9 km/h   24 % 0.0 mm
19:18 6.5 °C -12.2 °C 1013.8 hPa NNE 1.9 km/h 1.9 km/h 25 % 0.0 mm
19:23 6.5 °C -12.2 °C 1013.8 hPa Calm     25 % 0.0 mm
19:28 6.4 °C -12.2 °C 1013.8 hPa Calm     25 % 0.0 mm
19:38 6.4 °C -11.8 °C 1013.8 hPa Calm     26 % 0.0 mm
19:43 6.4 °C -11.8 °C 1013.8 hPa NNE 1.9 km/h   26 % 0.0 mm
19:48 6.3 °C -11.8 °C 1014.8 hPa NNE 3.9 km/h 3.9 km/h 26 % 0.0 mm
19:53 6.3 °C -11.8 °C 1014.8 hPa SW 4.2 km/h 4.2 km/h 26 % 0.0 mm
19:58 6.2 °C -11.4 °C 1014.8 hPa South 4.2 km/h 4.2 km/h 27 % 0.0 mm
20:03 6.3 °C -11.4 °C 1014.8 hPa South 3.7 km/h 3.7 km/h 27 % 0.0 mm
20:08 6.3 °C -11.4 °C 1014.8 hPa South 5.6 km/h 5.6 km/h 27 % 0.0 mm
20:13 6.3 °C -11.4 °C 1014.8 hPa West 2.6 km/h 2.6 km/h 27 % 0.0 mm
20:28 6.3 °C -10.9 °C 1014.8 hPa Calm     28 % 0.0 mm
20:33 6.3 °C -10.9 °C 1014.8 hPa NNE 1.9 km/h 1.9 km/h 28 % 0.0 mm
20:38 6.2 °C -10.6 °C 1014.8 hPa Calm     29 % 0.0 mm
20:43 6.2 °C -10.6 °C 1014.8 hPa SW 3.7 km/h 3.7 km/h 29 % 0.0 mm
20:48 6.1 °C -10.7 °C 1015.8 hPa SW 1.9 km/h   29 % 0.0 mm
20:58 6.1 °C -10.7 °C 1015.8 hPa NW 1.9 km/h   29 % 0.0 mm
21:03 6.2 °C -10.6 °C 1015.8 hPa Calm     29 % 0.0 mm
21:08 6.1 °C -10.7 °C 1015.8 hPa NW 1.9 km/h 1.9 km/h 29 % 0.0 mm
21:18 6.0 °C -10.3 °C 1015.8 hPa Calm     30 % 0.0 mm
21:23 6.0 °C -10.3 °C 1015.8 hPa Calm     30 % 0.0 mm
21:28 5.9 °C -10.4 °C 1015.8 hPa Calm     30 % 0.0 mm
21:38 5.8 °C -11.3 °C 1014.8 hPa Calm     28 % 0.0 mm
21:48 5.8 °C -10.9 °C 1015.8 hPa WSW 3.7 km/h 3.7 km/h 29 % 0.0 mm
21:53 5.7 °C -11.0 °C 1015.8 hPa WSW 3.7 km/h 3.7 km/h 29 % 0.0 mm
21:58 5.6 °C -11.1 °C 1015.8 hPa WSW 3.7 km/h 3.7 km/h 29 % 0.0 mm
22:03 5.6 °C -11.5 °C 1015.8 hPa West 7.4 km/h 7.4 km/h 28 % 0.0 mm
22:08 5.8 °C -11.8 °C 1015.8 hPa West 9.0 km/h 9.0 km/h 27 % 0.0 mm
22:13 5.9 °C -11.7 °C 1015.8 hPa WSW 5.6 km/h 5.6 km/h 27 % 0.0 mm
22:23 5.8 °C -12.3 °C 1015.8 hPa West 3.7 km/h 4.2 km/h 26 % 0.0 mm
22:28 5.8 °C -12.3 °C 1015.8 hPa WSW 3.9 km/h 3.9 km/h 26 % 0.0 mm
22:29 5.8 °C -12.3 °C 1014.8 hPa WNW 5.6 km/h 5.6 km/h 26 % 0.0 mm
22:44 5.8 °C -12.3 °C 1015.8 hPa WSW 9.3 km/h 9.3 km/h 26 % 0.0 mm
22:49 5.9 °C -12.7 °C 1015.8 hPa WSW 7.4 km/h 7.4 km/h 25 % 0.0 mm
22:59 5.8 °C -12.3 °C 1015.8 hPa WNW 13.0 km/h 13.0 km/h 26 % 0.0 mm
23:09 5.7 °C -12.3 °C 1015.8 hPa WSW 7.4 km/h 7.4 km/h 26 % 0.0 mm
23:14 5.7 °C -12.8 °C 1015.8 hPa WSW 4.7 km/h 4.7 km/h 25 % 0.0 mm
23:19 5.7 °C -12.3 °C 1015.8 hPa SW 5.6 km/h 5.6 km/h 26 % 0.0 mm
23:24 5.7 °C -12.3 °C 1015.8 hPa WSW 7.4 km/h 7.4 km/h 26 % 0.0 mm
23:35 5.8 °C -12.8 °C 1015.8 hPa West 3.2 km/h 11.3 km/h 25 % 0.0 mm
23:40 5.9 °C -12.7 °C 1015.8 hPa WSW 14.8 km/h 14.8 km/h 25 % 0.0 mm
23:45 5.9 °C -12.7 °C 1015.8 hPa West 9.3 km/h 9.3 km/h 25 % 0.0 mm
23:50 5.8 °C -12.8 °C 1015.8 hPa WSW 4.8 km/h 12.9 km/h 25 % 0.0 mm
Meteo Sesrovires
Elogis d' Weather Underground - 3.75 mb

Guio original per  Jim McMurry - jmcmurry@mwt.net Adaptat per a la plantilla per  Wim van der Kuil - Leuven-Template.eu

Trobareu la nostra informacio del temps tambe a:

Weather Underground

AWEKAS